Probability
0 0 0 0 0 0 0 0 0 0 0 0 0 3 16 45 52 58 68 74 84 87 87 87 87 90 90 84 84 84 77 74 77 77 74 68 71 77 81 74 74 81 71 61
0 0 0 0 0 0 0 0 0 0 0 0 0 3 10 39 52 61 68 77 81 84 84 90 87 84 84 77 74 77 74 74 71 77 77 74 74 74 65 68 77 71 68 61
0 0 0 0 0 0 0 0 0 0 0 0 0 0 10 29 48 58 61 68 68 77 84 84 84 81 74 77 74 65 65 74 71 74 71 61 68 68 52 61 55 68 68 58
0 0 0 0 0 0 0 0 0 0 0 0 0 0 13 16 23 45 58 68 61 71 68 71 81 81 74 74 68 61 61 61 65 65 61 58 55 48 58 58 52 61 58 61
0 0 0 0 0 0 0 0 0 0 0 0 0 0 0 10 10 26 55 55 52 61 71 84 81 77 74 71 61 55 58 61 65 65 65 61 52 55 52 58 48 58 55 45
0 0 0 0 0 0 0 0 0 0 0 0 0 0 0 0 10 10 32 45 48 61 68 81 74 77 74 65 58 55 58 65 65 58 55 55 48 48 52 55 42 48 58 55
0 0 0 0 0 0 0 0 0 0 0 0 0 0 0 16 19 23 32 45 55 68 81 81 74 74 77 74 58 68 68 58 55 55 48 48 52 52 55 52 48 42 39 42
0 0 0 0 0 0 0 0 0 0 0 0 3 0 0 19 26 26 32 45 58 65 74 77 71 68 68 65 68 61 58 61 58 52 52 52 48 55 48 58 52 45 45 45
0 0 0 0 0 0 0 0 0 0 0 0 0 0 19 19 35 35 39 55 65 58 65 74 71 65 61 61 61 61 65 61 52 52 52 52 42 42 45 55 52 52 58 45
0 0 0 0 0 0 0 0 0 0 0 0 0 0 0 23 39 42 48 58 58 68 68 65 61 55 55 58 58 55 58 61 55 45 48 35 42 39 35 42 45 48 58 45
0 0 0 0 0 0 0 0 0 0 0 0 0 0 6 39 48 52 52 55 61 71 65 58 65 58 55 55 55 55 52 52 48 48 52 45 32 35 32 35 39 42 48 42
0 0 0 0 0 0 0 0 0 0 0 0 0 6 19 26 48 61 55 48 61 71 65 74 61 58 55 52 55 42 48 42 48 48 45 39 39 39 32 32 32 45 42 35
0 0 0 0 0 0 0 0 0 0 0 0 0 6 16 29 32 58 52 61 61 68 68 68 61 55 58 52 48 39 42 45 48 48 39 39 39 35 32 29 39 42 39 39
0 0 0 0 0 0 0 0 0 0 0 0 0 6 32 32 52 65 58 61 61 68 68 68 68 61 61 58 48 39 45 39 39 32 39 35 26 26 26 32 29 26 42 42
0 0 0 0 0 0 0 0 0 0 0 0 0 3 23 39 58 52 52 61 58 55 58 58 52 55 58 61 52 42 42 39 39 35 29 29 32 26 23 23 19 16 23 23
0 0 0 0 0 0 0 0 0 0 0 0 0 16 35 55 52 55 55 55 55 48 45 42 32 42 39 39 35 39 35 39 35 32 29 29 29 23 23 19 16 23 19 19
0 0 0 0 0 0 3 0 0 3 3 3 3 19 52 55 55 55 58 58 55 39 39 45 39 39 42 35 35 39 29 26 29 32 32 29 32 32 23 10 10 13 23 19
3 10 3 0 0 0 0 3 0 0 3 10 26 42 39 45 52 45 52 55 52 42 35 39 35 32 35 35 23 32 26 19 23 32 35 35 29 26 23 19 16 19 16 19
6 10 0 0 0 0 0 0 0 3 6 13 29 39 35 45 35 32 35 42 39 39 39 32 32 32 32 29 26 19 19 23 23 26 32 32 26 26 19 19 13 19 19 23
3 13 0 0 0 0 0 6 10 6 13 26 35 42 42 39 29 32 29 32 26 29 32 29 29 29 29 26 26 16 13 13 13 16 23 23 26 26 19 23 19 23 23 23
3 3 0 0 0 0 3 3 3 0 13 32 39 39 39 42 42 23 19 19 16 23 26 29 29 29 26 26 16 16 13 13 10 10 13 19 23 23 26 26 26 23 26 19
0 0 0 0 0 0 6 3 10 29 39 35 42 39 32 23 10 6 16 13 10 19 23 23 19 23 19 16 16 10 10 10 6 13 13 16 29 19 16 26 26 19 19 10
3 3 3 6 3 6 10 16 13 19 26 29 26 26 19 10 6 6 6 10 10 10 16 16 16 16 16 19 23 16 16 6 6 6 10 13 13 13 13 13 19 13 6 6
0 0 3 0 6 10 10 10 13 13 23 16 13 10 3 6 6 6 10 6 6 10 13 13 10 10 13 13 10 13 10 10 6 6 6 13 13 10 10 10 6 6 6 3
0 0 3 3 3 10 10 10 10 10 10 6 3 3 3 3 0 0 6 3 3 6 3 6 6 6 10 10 10 10 10 10 10 10 6 3 3 0 3 0 3 0 3 3
0 0 0 0 0 3 6 3 3 0 3 3 3 3 3 0 0 0 0 0 0 0 0 0 0 0 0 3 6 6 6 6 6 6 0 0 0 0 3 3 0 0 0 0
Height
5874 5877 5878 5880 5881 5882 5883 5884 5885 5884 5884 5886 5886 5887 5887 5886 5886 5886 5886 5885 5884 5883 5881 5880 5879 5877 5876 5874 5872 5871 5870 5869 5869 5869 5869 5870 5872 5874 5876 5878 5879 5881 5883 5885
5871 5872 5874 5875 5877 5878 5880 5881 5881 5881 5882 5883 5884 5884 5884 5884 5884 5884 5883 5883 5882 5880 5879 5878 5876 5875 5873 5872 5870 5869 5867 5866 5866 5866 5866 5868 5869 5871 5873 5875 5877 5879 5881 5883
5865 5868 5869 5871 5873 5874 5876 5877 5878 5878 5879 5880 5882 5883 5882 5882 5882 5881 5881 5880 5879 5878 5876 5875 5873 5872 5870 5869 5867 5866 5864 5864 5863 5863 5864 5865 5867 5868 5871 5873 5875 5876 5878 5880
5860 5862 5865 5866 5869 5870 5872 5873 5874 5875 5877 5878 5880 5883 5880 5879 5879 5878 5878 5877 5876 5875 5873 5872 5870 5869 5868 5866 5865 5864 5862 5862 5861 5861 5862 5863 5864 5866 5868 5869 5871 5874 5876 5878
5855 5858 5860 5862 5864 5866 5868 5869 5871 5872 5874 5876 5876 5879 5880 5877 5876 5876 5875 5874 5873 5872 5870 5869 5867 5866 5865 5863 5862 5861 5860 5860 5859 5859 5860 5861 5862 5863 5865 5867 5869 5871 5873 5875
5850 5853 5855 5858 5859 5861 5863 5866 5867 5868 5871 5873 5874 5875 5876 5874 5873 5872 5872 5871 5870 5869 5868 5866 5865 5864 5863 5862 5861 5859 5858 5857 5857 5857 5858 5858 5859 5860 5862 5864 5866 5868 5870 5872
5844 5847 5850 5853 5855 5857 5860 5863 5865 5867 5868 5870 5870 5871 5872 5870 5869 5869 5868 5868 5867 5867 5866 5864 5863 5862 5861 5860 5859 5857 5856 5855 5855 5855 5855 5856 5856 5857 5859 5860 5862 5864 5866 5869
5839 5842 5845 5848 5851 5853 5855 5859 5863 5866 5868 5868 5866 5867 5868 5866 5866 5865 5865 5865 5864 5864 5863 5863 5861 5860 5859 5858 5856 5855 5854 5853 5853 5852 5853 5853 5853 5854 5855 5857 5858 5860 5863 5865
5834 5837 5840 5842 5845 5848 5851 5853 5858 5861 5862 5864 5864 5863 5863 5862 5862 5862 5862 5862 5862 5861 5861 5860 5859 5858 5856 5855 5854 5852 5851 5851 5850 5850 5849 5849 5850 5851 5852 5853 5854 5856 5859 5861
5828 5832 5834 5837 5840 5843 5846 5849 5852 5856 5858 5860 5861 5860 5861 5859 5859 5860 5859 5859 5859 5859 5858 5857 5856 5855 5854 5853 5851 5850 5849 5848 5847 5847 5846 5846 5846 5847 5848 5849 5851 5852 5855 5857
5823 5827 5830 5832 5835 5839 5842 5845 5847 5851 5854 5857 5859 5861 5857 5856 5857 5857 5857 5857 5856 5856 5855 5855 5854 5853 5852 5850 5849 5847 5846 5845 5844 5843 5843 5843 5844 5844 5844 5845 5847 5848 5850 5852
5818 5822 5825 5828 5831 5834 5837 5840 5843 5847 5849 5851 5855 5858 5852 5853 5853 5853 5854 5854 5853 5853 5853 5852 5851 5850 5849 5848 5847 5845 5844 5843 5842 5841 5841 5841 5841 5840 5841 5842 5843 5844 5846 5848
5812 5817 5821 5824 5828 5830 5832 5835 5839 5842 5845 5847 5850 5853 5849 5849 5849 5850 5850 5850 5850 5850 5849 5849 5848 5847 5846 5846 5844 5843 5841 5840 5839 5838 5838 5838 5838 5837 5837 5838 5839 5841 5842 5844
5808 5812 5818 5822 5824 5825 5828 5831 5834 5837 5840 5843 5845 5846 5845 5845 5846 5846 5846 5847 5847 5846 5846 5846 5845 5844 5844 5843 5842 5840 5839 5838 5837 5836 5835 5834 5835 5835 5835 5835 5836 5837 5838 5840
5802 5807 5811 5815 5818 5821 5824 5826 5829 5832 5836 5839 5840 5840 5840 5841 5841 5842 5842 5842 5842 5842 5842 5842 5841 5841 5840 5840 5838 5837 5836 5835 5834 5833 5833 5832 5832 5832 5832 5832 5833 5834 5835 5836
5797 5802 5806 5809 5812 5816 5819 5821 5824 5827 5830 5832 5834 5835 5835 5836 5837 5837 5838 5838 5838 5838 5838 5838 5837 5837 5836 5836 5835 5834 5833 5833 5832 5831 5830 5830 5830 5830 5829 5830 5830 5831 5831 5832
5792 5797 5801 5805 5808 5810 5813 5816 5819 5822 5824 5827 5828 5830 5830 5831 5832 5832 5833 5833 5833 5833 5833 5833 5833 5832 5832 5832 5831 5830 5830 5829 5829 5828 5828 5827 5827 5827 5827 5827 5827 5827 5828 5829
5787 5791 5796 5800 5803 5806 5810 5811 5814 5816 5819 5821 5822 5823 5824 5825 5826 5827 5827 5828 5828 5828 5828 5828 5828 5828 5828 5828 5827 5826 5826 5825 5825 5825 5825 5824 5824 5824 5823 5823 5823 5824 5824 5825
5780 5786 5790 5794 5797 5800 5802 5805 5808 5811 5813 5815 5816 5817 5818 5819 5820 5820 5821 5822 5822 5822 5823 5823 5823 5823 5823 5823 5822 5822 5821 5821 5821 5821 5821 5820 5820 5820 5820 5820 5820 5820 5820 5820
5774 5779 5784 5787 5792 5794 5797 5800 5802 5806 5806 5809 5810 5811 5812 5813 5814 5815 5815 5815 5816 5816 5816 5817 5817 5817 5818 5818 5817 5817 5817 5816 5816 5816 5816 5816 5816 5816 5816 5815 5815 5815 5816 5816
5767 5771 5776 5780 5784 5787 5789 5793 5796 5799 5800 5802 5803 5804 5806 5807 5808 5809 5808 5809 5809 5810 5810 5811 5811 5811 5812 5812 5812 5811 5811 5811 5811 5811 5811 5811 5811 5811 5811 5811 5811 5811 5811 5811
5760 5764 5768 5773 5777 5781 5782 5785 5788 5791 5793 5794 5796 5797 5798 5800 5801 5801 5802 5802 5803 5803 5804 5804 5805 5805 5805 5806 5806 5806 5805 5805 5805 5805 5805 5805 5805 5806 5806 5806 5806 5806 5806 5806
5752 5757 5760 5765 5769 5771 5774 5777 5781 5783 5785 5787 5789 5790 5791 5792 5793 5794 5795 5796 5796 5797 5797 5797 5798 5798 5799 5799 5800 5800 5800 5799 5800 5800 5800 5800 5800 5800 5800 5801 5801 5800 5800 5800
5745 5749 5753 5757 5760 5764 5767 5770 5773 5775 5778 5780 5781 5782 5784 5785 5786 5787 5788 5789 5789 5790 5790 5791 5791 5791 5792 5793 5793 5793 5793 5794 5794 5794 5794 5794 5794 5794 5794 5794 5794 5794 5794 5794
5738 5743 5746 5750 5753 5756 5759 5762 5765 5768 5770 5772 5774 5775 5776 5778 5779 5780 5781 5782 5782 5783 5783 5784 5784 5785 5786 5786 5787 5787 5787 5787 5788 5788 5788 5788 5788 5788 5788 5788 5788 5788 5787 5787
5731 5736 5740 5743 5746 5749 5753 5755 5758 5761 5763 5765 5767 5768 5769 5771 5772 5773 5774 5775 5775 5776 5777 5777 5778 5779 5779 5780 5780 5781 5781 5781 5781 5782 5782 5782 5782 5782 5781 5781 5781 5780 5780 5780
Wind_Speed
17 17 15 14 13 13 12 12 12 13 11 9 8 8 8 8 8 9 9 9 10 11 10 10 11 11 12 12 12 11 10 10 11 12 12 13 15 14 15 16 16 15 16 15
19 18 17 16 15 14 13 13 13 13 11 9 8 8 8 8 9 9 10 10 10 10 11 13 12 12 12 12 13 13 11 11 12 12 12 12 15 15 15 17 16 16 16 16
21 20 19 17 16 15 15 14 14 13 11 10 8 9 10 10 11 11 11 11 11 12 12 13 13 12 12 13 13 13 12 10 9 10 11 12 14 15 15 15 16 17 17 17
24 22 20 19 17 16 16 15 15 13 11 11 9 8 12 11 11 11 11 12 13 12 13 13 12 12 11 12 13 12 10 10 10 10 11 12 14 15 16 16 17 17 17 17
24 23 21 20 18 18 17 16 15 13 12 11 11 9 11 12 12 13 13 13 13 12 12 11 11 11 11 12 12 11 11 10 9 9 10 12 14 15 17 18 17 16 17 18
26 24 22 21 20 19 18 16 15 13 13 13 12 10 11 12 13 13 13 13 12 11 10 10 10 10 10 11 11 11 11 10 9 9 10 12 13 15 16 17 17 17 17 17
26 24 23 22 21 20 19 16 15 14 14 13 14 11 12 13 12 12 12 11 10 10 10 9 9 9 10 11 11 11 11 10 10 10 11 12 13 15 16 17 18 18 18 18
26 25 24 23 22 21 19 18 16 14 13 13 15 12 13 12 11 11 11 10 9 9 8 8 8 8 9 10 11 11 11 10 10 11 12 13 13 14 15 16 17 19 19 19
26 26 25 23 23 22 20 18 17 16 15 13 14 13 12 12 11 10 9 9 8 8 8 8 9 9 10 11 12 11 11 10 10 11 11 12 13 13 15 16 17 18 18 19
27 26 25 24 23 22 21 19 19 17 15 14 13 12 12 12 11 10 9 9 8 8 9 9 9 10 11 12 12 11 12 11 11 11 12 12 13 14 15 17 17 18 19 19
26 25 25 24 23 22 21 20 19 17 16 14 12 13 14 13 12 11 10 10 10 10 11 11 11 12 12 13 12 11 12 12 11 10 11 12 13 14 15 16 18 19 20 20
26 25 24 24 23 22 21 20 19 18 17 15 13 15 15 13 12 12 11 11 11 11 11 11 12 13 13 12 12 12 11 11 11 10 11 12 12 13 15 15 16 18 19 20
26 26 25 24 24 23 22 21 20 18 16 15 13 15 16 14 14 13 12 12 12 12 11 11 12 13 12 12 12 12 11 11 11 11 12 13 13 13 14 15 16 16 17 19
26 25 23 21 20 21 21 21 21 19 17 16 14 16 16 14 14 14 14 14 13 14 14 14 14 14 14 13 12 12 12 11 11 12 12 12 12 13 14 15 15 16 17 18
27 25 24 23 22 21 20 20 21 20 18 17 17 17 16 15 15 16 16 16 16 16 16 16 15 15 14 14 13 13 12 12 11 11 11 12 12 12 12 13 14 16 17 19
28 26 25 24 23 22 22 22 22 20 19 19 18 19 18 16 16 16 16 16 16 16 17 17 17 16 15 15 15 14 14 13 12 12 12 12 12 12 13 13 14 15 17 18
29 27 26 24 24 23 24 24 23 22 21 20 19 20 19 19 18 18 18 17 17 17 17 18 17 17 17 16 16 16 16 15 14 13 13 13 13 13 13 14 15 16 17 17
30 28 26 24 25 25 26 25 23 22 22 21 21 20 20 20 20 20 20 19 19 19 19 20 19 18 18 18 18 18 17 16 15 14 14 14 14 14 15 15 15 16 17 18
32 30 27 25 25 26 27 24 24 23 22 22 22 21 21 21 21 22 21 21 21 21 21 21 21 20 20 19 19 19 19 18 17 16 16 16 16 16 16 16 16 16 17 18
34 32 30 28 25 26 27 24 24 24 24 22 22 22 22 22 23 22 22 22 23 23 23 22 22 22 22 21 20 20 20 19 18 18 18 17 16 16 16 17 17 18 18 19
34 32 31 29 27 28 28 25 25 26 26 23 23 23 23 23 23 23 23 24 24 24 24 23 23 23 22 22 22 21 21 20 20 19 19 19 19 18 18 18 18 19 20 20
33 32 32 30 28 30 28 27 28 27 25 25 24 24 24 24 24 24 23 24 24 24 24 24 23 23 22 22 22 22 22 21 21 20 19 19 19 20 19 19 19 19 19 20
33 34 33 32 31 30 28 27 27 27 27 26 25 25 25 25 25 25 24 24 24 24 24 24 24 24 23 23 23 22 22 21 21 21 20 20 20 20 20 20 21 21 21 22
33 32 31 30 30 29 28 28 28 27 27 27 26 26 26 26 26 26 25 24 24 24 24 24 23 23 23 22 22 22 22 21 21 21 21 21 21 21 21 22 23 23 23 24
32 32 31 31 30 29 29 28 28 27 27 26 26 26 26 26 25 24 24 24 25 25 24 23 22 22 22 22 21 21 22 22 22 22 22 22 22 22 22 23 24 25 24 24
32 31 31 30 29 29 28 28 27 27 26 25 25 25 25 24 23 23 23 23 23 23 23 23 22 22 22 22 22 21 21 21 21 22 23 23 22 22 22 23 24 24 24 24
Wind_Direction
247 249 251 252 253 254 255 256 262 270 277 273 269 270 276 276 272 271 276 283 287 290 291 299 305 307 311 312 313 311 301 281 272 261 251 242 234 229 228 227 226 226 222 222
245 247 248 250 252 253 254 257 260 268 270 268 267 271 271 271 273 270 270 280 289 292 295 301 300 303 307 308 307 305 301 292 276 257 243 237 231 231 231 230 228 226 225 226
243 243 245 248 250 252 254 255 257 264 267 266 267 273 271 273 277 270 272 278 285 293 297 300 300 300 303 303 302 300 297 295 280 257 244 238 232 232 232 231 229 228 228 228
241 242 243 246 248 249 251 253 256 262 260 263 260 258 273 274 276 273 272 277 285 291 294 294 294 296 300 302 301 301 305 295 282 262 250 244 237 233 233 231 231 230 228 226
241 242 242 244 244 245 247 251 254 259 257 257 262 254 267 272 272 271 271 275 282 289 294 291 291 295 299 303 305 302 298 296 283 261 250 251 243 239 236 233 232 229 226 225
239 239 240 240 241 243 245 248 252 255 255 253 256 255 263 267 271 274 273 274 280 286 293 292 294 295 301 303 302 304 300 294 283 268 257 257 247 240 235 233 233 229 228 228
239 239 239 239 240 242 242 242 244 248 250 251 256 254 256 263 269 272 273 272 276 280 289 294 299 300 305 308 305 306 306 297 282 275 267 260 249 240 237 236 235 231 231 230
236 238 238 238 239 241 240 237 233 235 243 249 260 255 258 264 268 272 271 270 271 275 283 290 296 302 308 310 309 308 308 297 282 277 270 263 255 246 242 240 237 233 232 229
234 236 236 235 235 235 235 234 231 233 237 239 256 258 261 264 267 270 267 266 267 271 276 284 288 293 304 311 311 305 302 292 283 279 274 265 259 252 247 243 238 232 231 231
231 234 234 233 232 231 231 231 230 228 233 238 253 260 258 260 262 263 264 261 260 263 271 278 285 292 300 306 308 300 298 292 285 283 278 270 261 254 248 245 237 234 234 234
228 229 232 231 231 231 230 230 231 229 231 232 246 257 255 255 255 257 260 257 260 264 270 275 280 287 293 299 302 296 294 290 285 286 277 264 259 255 248 243 237 234 235 236
225 225 228 230 231 229 229 230 231 231 237 233 234 252 256 252 250 251 254 255 260 267 269 270 276 283 288 293 296 293 291 290 286 280 276 266 260 257 248 242 242 240 238 237
223 224 225 229 230 230 230 229 228 229 238 240 236 249 252 248 248 250 253 256 260 263 266 270 274 279 287 292 293 291 288 289 289 283 275 268 262 259 251 243 243 241 241 238
222 223 222 226 234 234 233 231 227 227 231 241 237 244 249 248 250 251 253 256 261 262 264 268 272 277 282 287 289 289 289 290 291 287 280 272 267 261 253 246 243 241 241 240
220 221 219 218 223 228 231 231 229 229 229 237 243 245 249 249 251 252 255 259 263 264 264 266 271 274 276 281 284 284 286 288 289 286 282 280 275 265 257 250 243 242 242 240
219 221 221 222 224 226 226 227 228 230 234 238 242 247 246 249 251 253 257 262 264 265 265 266 270 271 272 277 279 280 283 286 284 281 279 278 274 266 259 255 249 247 246 245
219 220 220 224 225 228 228 226 228 234 238 241 244 246 248 250 252 254 257 261 263 263 264 267 268 270 272 276 277 277 277 278 278 276 275 274 270 264 259 254 252 251 248 247
217 217 218 223 225 227 232 231 233 238 240 241 244 248 249 252 254 255 257 260 262 264 266 267 267 269 272 276 278 275 274 273 273 270 271 270 270 266 261 256 253 253 250 250
218 218 219 224 228 232 235 234 236 239 243 244 246 248 251 254 256 257 258 259 262 264 265 265 265 267 270 274 276 274 273 272 271 271 270 268 268 267 264 261 256 255 253 253
219 221 224 227 227 234 240 235 236 240 244 244 247 249 251 254 256 257 257 259 260 261 262 263 264 265 268 271 272 273 271 270 269 268 269 267 267 266 264 264 260 257 256 258
220 223 225 229 231 236 240 237 237 241 244 244 247 250 252 255 255 257 257 258 259 260 262 264 265 265 266 267 269 270 269 268 267 267 267 266 267 266 266 266 263 262 261 262
221 224 226 228 231 237 238 237 238 241 244 247 250 252 254 255 257 259 259 259 259 260 262 264 263 262 263 264 266 267 267 266 265 265 265 266 266 265 265 265 266 264 263 263
221 223 225 227 230 236 237 239 241 243 246 249 252 253 254 255 258 259 258 260 261 260 261 262 262 260 261 263 264 265 265 265 265 266 266 266 266 264 264 265 267 268 267 266
223 225 228 230 232 234 237 239 241 242 246 249 252 253 253 255 257 257 258 259 260 260 261 262 261 261 261 262 263 263 264 264 264 265 265 266 266 266 265 266 267 268 268 267
224 226 229 232 233 234 235 237 239 242 245 249 252 253 254 255 256 256 256 257 257 259 261 261 260 261 261 261 263 263 263 263 263 264 265 267 269 267 268 268 268 270 271 271
223 224 225 229 231 231 232 235 238 241 244 247 250 251 252 253 253 254 255 255 256 257 257 259 261 262 262 263 264 264 264 264 264 265 265 267 268 267 268 269 271 272 273 273